Mission Field Livingston US
ICAO: KLVM
IATA: LVM
Category: Medium
Scheduled Services: No

Elevation: 4660 ft
TransAlt. 18000 ft.

Airport Communications:
ASOS:135.275
GREAT FALLS RDO:122.2
CTAF/UNICOM:123

KLVM Zoom In..

If Map Doesn't Load, Click Here

Runways:

(A) RW 04 length 5701 ft width 75 ft
---- / hdg 39

(B) RW 08 length 3762 ft width 125 ft
---- / hdg 78

(C) RW 13 length 2724 ft width 120 ft
---- / hdg 132

(D) RW 22 length 5701 ft width 75 ft
---- / hdg 219

(E) RW 26 length 3762 ft width 125 ft
---- / hdg 258

(F) RW 31 length 2724 ft width 120 ft
---- / hdg 312

Location; KLVM
Day. 26 / Time. 09.53 Zulu
* Altimeter: 30.21
* Temperature: 01° c. 33.8°f.
* Wind from: 330° Speed 12 kn.
Dewpoint: -02° c.
Visibility: 10 Statute Miles.
Clouds: Clear (automated report).

KLVM 260953Z AUTO 33012KT 10SM CLR 01/M02 A3021 RMK AO2 SLP229 T00111017


Wind From 330°
Speed 12 kn.

 
 
jpsmedia.com for Web Design worldairports.se 2018   terms of use